KN6KS Weather Reports


Display with metric or nautical units.
time (UTC)temp
F
wind
direction
speed
MPH
gust
MPH
rain 1hr
in
rain 24hr
in
rain mn
in
humidity
%
barometer
mb
20260831210821 84 171 11.0 13.0 0.00 0.00 0.00 25 1013.3
20260831210317 85 191 10.0 13.0 0.00 0.00 0.00 27 1013.3
20260831205812 85 230 4.0 5.0 0.00 0.00 0.00 25 1013.3
20260831205308 85 208 7.0 9.0 0.00 0.00 0.00 25 1013.5
20260831204808 84 259 17.0 18.0 0.00 0.00 0.00 26 1013.6
20260831204307 83 241 11.0 14.0 0.00 0.00 0.00 27 1013.9
20260831203806 84 261 11.0 17.0 0.00 0.00 0.00 26 1013.6
20260831203301 84 253 11.0 17.0 0.00 0.00 0.00 24 1013.5
20260831202759 83 243 10.0 14.0 0.00 0.00 0.00 25 1013.9
20260831202255 84 250 17.0 20.0 0.00 0.00 0.00 23 1013.6
20260831201754 84 246 5.0 6.0 0.00 0.00 0.00 25 1013.5
20260831201253 84 251 12.0 15.0 0.00 0.00 0.00 26 1013.6
20260831200749 84 256 13.0 15.0 0.00 0.00 0.00 26 1013.8
20260831200244 84 246 10.0 15.0 0.00 0.00 0.00 26 1013.6
20260831195739 84 250 11.0 13.0 0.00 0.00 0.00 27 1013.9
20260831195236 84 310 8.0 11.0 0.00 0.00 0.00 26 1013.6
20260831194730 84 258 9.0 10.0 0.00 0.00 0.00 27 1013.9
20260831194226 84 247 9.0 10.0 0.00 0.00 0.00 27 1013.8
20260831193719 83 265 6.0 9.0 0.00 0.00 0.00 26 1014.0
20260831193215 83 272 14.0 16.0 0.00 0.00 0.00 25 1013.9
20260831192710 84 219 9.0 10.0 0.00 0.00 0.00 24 1013.6
20260831192205 83 225 7.0 8.0 0.00 0.00 0.00 24 1013.9
20260831191701 82 288 7.0 8.0 0.00 0.00 0.00 24 1014.0
20260831191157 83 238 12.0 14.0 0.00 0.00 0.00 24 1014.0
20260831190651 83 229 9.0 13.0 0.00 0.00 0.00 24 1013.9
20260831190150 83 280 9.0 14.0 0.00 0.00 0.00 24 1013.8
20260831185641 83 240 9.0 11.0 0.00 0.00 0.00 23 1014.1
20260831185136 83 241 12.0 13.0 0.00 0.00 0.00 23 1014.1
20260831184635 83 247 12.0 13.0 0.00 0.00 0.00 23 1014.0
20260831184132 83 237 11.0 14.0 0.00 0.00 0.00 23 1014.0
20260831183631 83 205 8.0 10.0 0.00 0.00 0.00 24 1014.2
20260831183130 82 251 11.0 11.0 0.00 0.00 0.00 25 1013.8
20260831182629 83 210 11.0 14.0 0.00 0.00 0.00 25 1014.1
20260831182125 82 214 12.0 15.0 0.00 0.00 0.00 25 1014.0
20260831181620 82 233 11.0 15.0 0.00 0.00 0.00 26 1013.8
20260831181120 82 216 12.0 15.0 0.00 0.00 0.00 25 1013.6
20260831180615 82 170 14.0 16.0 0.00 0.00 0.00 22 1013.5
20260831180110 82 209 11.0 14.0 0.00 0.00 0.00 23 1013.6
20260831175605 82 240 18.0 20.0 0.00 0.00 0.00 22 1013.5
20260831175102 82 243 17.0 23.0 0.00 0.00 0.00 22 1013.6
20260831174557 81 228 7.0 9.0 0.00 0.00 0.00 22 1013.6
20260831174056 81 251 17.0 21.0 0.00 0.00 0.00 23 1013.5
20260831173554 81 246 17.0 23.0 0.00 0.00 0.00 22 1013.8
20260831173051 81 195 12.0 16.0 0.00 0.00 0.00 22 1013.5
20260831172546 81 264 14.0 16.0 0.00 0.00 0.00 20 1013.6
20260831172046 81 283 6.0 7.0 0.00 0.00 0.00 22 1013.8
20260831171541 80 238 12.0 16.0 0.00 0.00 0.00 22 1013.6
20260831171038 81 232 10.0 15.0 0.00 0.00 0.00 23 1013.5
20260831170534 80 190 13.0 17.0 0.00 0.00 0.00 22 1013.5
20260831170032 80 221 10.0 17.0 0.00 0.00 0.00 22 1013.5
20260831165531 80 259 6.0 8.0 0.00 0.00 0.00 21 1013.6
20260831165028 80 253 14.0 18.0 0.00 0.00 0.00 21 1013.5
20260831164524 80 234 9.0 10.0 0.00 0.00 0.00 23 1013.8
20260831164019 80 321 3.0 5.0 0.00 0.00 0.00 23 1013.3
20260831163514 79 242 6.0 13.0 0.00 0.00 0.00 24 1013.3
20260831163010 80 224 1.0 2.0 0.00 0.00 0.00 24 1013.6
20260831162509 79 274 4.0 6.0 0.00 0.00 0.00 25 1013.2
20260831162007 79 210 4.0 6.0 0.00 0.00 0.00 26 1013.6
20260831161504 78 18 7.0 7.0 0.00 0.00 0.00 24 1013.4
20260831160959 78 241 9.0 10.0 0.00 0.00 0.00 25 1013.4
20260831160458 78 282 4.0 6.0 0.00 0.00 0.00 24 1013.3
20260831155953 78 252 4.0 5.0 0.00 0.00 0.00 28 1013.6
20260831155448 77 47 4.0 5.0 0.00 0.00 0.00 30 1013.4
20260831154944 78 332 2.0 3.0 0.00 0.00 0.00 28 1013.5
20260831154440 77 152 4.0 5.0 0.00 0.00 0.00 26 1013.4
20260831153938 78 208 1.0 1.0 0.00 0.00 0.00 29 1013.5
20260831153434 77 85 3.0 3.0 0.00 0.00 0.00 30 1013.5
20260831152931 77 126 3.0 5.0 0.00 0.00 0.00 34 1013.5
20260831152426 76 150 3.0 5.0 0.00 0.00 0.00 35 1013.3
20260831151921 76 49 6.0 7.0 0.00 0.00 0.00 38 1013.3
20260831151420 76 219 1.0 1.0 0.00 0.00 0.00 31 1013.4
20260831150916 76 260 1.0 2.0 0.00 0.00 0.00 32 1013.2
20260831150411 75 222 5.0 6.0 0.00 0.00 0.00 33 1013.4
20260831145910 75 220 6.0 8.0 0.00 0.00 0.00 35 1013.3
20260831145406 75 265 10.0 11.0 0.00 0.00 0.00 35 1013.4
20260831144902 74 228 5.0 7.0 0.00 0.00 0.00 36 1013.1
20260831144358 74 219 9.0 14.0 0.00 0.00 0.00 38 1013.0
20260831143853 74 217 12.0 14.0 0.00 0.00 0.00 38 1013.0
20260831143348 74 233 12.0 14.0 0.00 0.00 0.00 39 1013.1
20260831142843 73 246 9.0 10.0 0.00 0.00 0.00 40 1012.7
20260831142338 73 218 9.0 10.0 0.00 0.00 0.00 41 1012.8
20260831141838 73 231 10.0 15.0 0.00 0.00 0.00 42 1012.7
20260831141333 73 223 8.0 10.0 0.00 0.00 0.00 42 1012.7
20260831140828 72 201 5.0 7.0 0.00 0.00 0.00 44 1012.7
20260831140322 71 6 3.0 3.0 0.00 0.00 0.00 49 1012.6
20260831135820 71 246 1.0 2.0 0.00 0.00 0.00 48 1012.9
20260831135316 71 94 3.0 3.0 0.00 0.00 0.00 48 1012.7
20260831134811 72 240 1.0 2.0 0.00 0.00 0.00 45 1012.6
20260831134307 72 199 5.0 6.0 0.00 0.00 0.00 46 1012.4
20260831133806 72 232 7.0 10.0 0.00 0.00 0.00 46 1012.2
20260831133301 72 213 7.0 8.0 0.00 0.00 0.00 46 1012.1
20260831132756 72 194 5.0 8.0 0.00 0.00 0.00 46 1012.2
20260831132251 72 242 13.0 17.0 0.00 0.00 0.00 46 1012.0
20260831131750 72 208 8.0 11.0 0.00 0.00 0.00 46 1012.1
20260831131247 72 205 9.0 11.0 0.00 0.00 0.00 46 1011.8
20260831130742 72 259 10.0 13.0 0.00 0.00 0.00 45 1011.9
20260831130237 72 215 10.0 11.0 0.00 0.00 0.00 46 1011.9
20260831125736 72 226 14.0 17.0 0.00 0.00 0.00 46 1011.8
20260831125232 72 236 14.0 17.0 0.00 0.00 0.00 46 1011.6
20260831124726 72 217 14.0 17.0 0.00 0.00 0.00 46 1011.9
20260831124223 72 222 12.0 13.0 0.00 0.00 0.00 46 1011.7
20260831123722 72 244 15.0 17.0 0.00 0.00 0.00 45 1011.9
20260831123222 72 254 17.0 20.0 0.00 0.00 0.00 45 1011.8
20260831122716 72 236 16.0 22.0 0.00 0.00 0.00 44 1011.9
20260831122212 72 245 13.0 16.0 0.00 0.00 0.00 44 1011.8
20260831121711 72 250 8.0 11.0 0.00 0.00 0.00 45 1012.2
20260831121208 72 249 9.0 10.0 0.00 0.00 0.00 44 1011.9
20260831120703 72 247 9.0 10.0 0.00 0.00 0.00 43 1012.1
20260831120157 72 266 7.0 9.0 0.00 0.00 0.00 42 1012.2
20260831115653 71 232 6.0 8.0 0.00 0.00 0.00 42 1012.1
20260831115149 70 257 0.0 0.0 0.00 0.00 0.00 47 1012.4
20260831114648 70 305 2.0 3.0 0.00 0.00 0.00 50 1012.2
20260831114142 70 237 3.0 3.0 0.00 0.00 0.00 49 1012.5
20260831113636 71 286 7.0 9.0 0.00 0.00 0.00 47 1012.4
20260831113132 72 265 0.0 0.0 0.00 0.00 0.00 43 1012.6
20260831112631 72 163 1.0 1.0 0.00 0.00 0.00 42 1012.8
20260831112126 73 257 1.0 1.0 0.00 0.00 0.00 40 1012.7
20260831111622 73 196 7.0 8.0 0.00 0.00 0.00 38 1012.5
20260831111118 74 236 9.0 11.0 0.00 0.00 0.00 38 1012.7
20260831110613 74 237 4.0 6.0 0.00 0.00 0.00 37 1012.4
20260831110108 74 185 8.0 10.0 0.00 0.00 0.00 36 1012.4
20260831105607 75 261 7.0 9.0 0.00 0.00 0.00 36 1012.4
20260831105102 75 261 8.0 10.0 0.00 0.00 0.00 35 1012.6
20260831104557 75 208 9.0 13.0 0.00 0.00 0.00 34 1012.6
20260831104054 75 254 13.0 14.0 0.00 0.00 0.00 34 1012.7
20260831103548 75 233 11.0 13.0 0.00 0.00 0.00 36 1012.5
20260831103039 75 196 13.0 17.0 0.00 0.00 0.00 34 1012.6
20260831102538 75 221 10.0 10.0 0.00 0.00 0.00 36 1012.7
20260831102034 75 192 12.0 13.0 0.00 0.00 0.00 35 1012.5
20260831101529 75 252 11.0 16.0 0.00 0.00 0.00 34 1012.0
20260831101025 75 224 14.0 18.0 0.00 0.00 0.00 34 1012.2
20260831100520 75 235 15.0 20.0 0.00 0.00 0.00 35 1012.4
20260831100016 75 246 14.0 18.0 0.00 0.00 0.00 35 1012.0
20260831095515 75 233 11.0 13.0 0.00 0.00 0.00 34 1012.0
20260831095009 75 233 15.0 17.0 0.00 0.00 0.00 35 1011.9
20260831094506 75 230 15.0 21.0 0.00 0.00 0.00 35 1011.9
20260831094001 76 226 14.0 15.0 0.00 0.00 0.00 34 1012.0
20260831093456 75 248 11.0 13.0 0.00 0.00 0.00 33 1012.0
20260831092953 75 232 10.0 14.0 0.00 0.00 0.00 35 1012.2
20260831092448 76 230 10.0 11.0 0.00 0.00 0.00 34 1012.2
20260831091943 76 225 13.0 16.0 0.00 0.00 0.00 32 1012.1
20260831091438 76 230 13.0 17.0 0.00 0.00 0.00 31 1012.1
20260831090933 76 214 8.0 9.0 0.00 0.00 0.00 32 1012.1
20260831090430 76 250 12.0 14.0 0.00 0.00 0.00 32 1012.1
20260831085925 76 250 14.0 17.0 0.00 0.00 0.00 33 1012.1
20260831085420 76 251 13.0 20.0 0.00 0.00 0.00 34 1011.9
20260831084920 76 223 12.0 14.0 0.00 0.00 0.00 34 1012.0
20260831084416 76 265 8.0 9.0 0.00 0.00 0.00 36 1012.5
20260831083912 76 236 11.0 13.0 0.00 0.00 0.00 37 1012.4
20260831083407 76 251 12.0 16.0 0.00 0.00 0.00 37 1012.4
20260831082906 76 269 8.0 11.0 0.00 0.00 0.00 37 1012.5
20260831082406 76 242 9.0 10.0 0.00 0.00 0.00 37 1012.6
20260831081902 76 266 7.0 8.0 0.00 0.00 0.00 38 1012.4
20260831081357 76 245 9.0 10.0 0.00 0.00 0.00 39 1012.1
20260831080853 76 255 5.0 6.0 0.00 0.00 0.00 39 1012.5
20260831080348 76 209 6.0 9.0 0.00 0.00 0.00 39 1012.5
20260831075843 75 257 1.0 1.0 0.00 0.00 0.00 41 1012.7
20260831075338 75 247 2.0 2.0 0.00 0.00 0.00 41 1012.8
20260831074833 76 256 1.0 1.0 0.00 0.00 0.00 41 1012.7
20260831074332 76 247 3.0 3.0 0.00 0.00 0.00 41 1012.9
20260831073828 76 255 4.0 6.0 0.00 0.00 0.00 41 1012.7
20260831073327 76 250 6.0 7.0 0.00 0.00 0.00 41 1012.7
20260831072823 75 233 6.0 7.0 0.00 0.00 0.00 42 1012.7
20260831072318 75 222 7.0 7.0 0.00 0.00 0.00 42 1012.8
20260831071809 75 243 4.0 5.0 0.00 0.00 0.00 44 1012.7
20260831071308 75 251 9.0 10.0 0.00 0.00 0.00 43 1012.7
20260831070803 75 233 8.0 8.0 0.00 0.00 0.00 42 1012.6
20260831070302 75 241 11.0 13.0 0.00 0.00 0.00 42 1012.6
20260831065801 75 266 9.0 11.0 0.00 0.00 0.00 40 1012.7
20260831065259 76 238 10.0 11.0 0.00 0.00 0.00 38 1012.9
20260831064754 77 255 10.0 10.0 0.00 0.00 0.00 37 1012.8
20260831064254 77 227 9.0 10.0 0.00 0.00 0.00 37 1012.9
20260831063750 77 251 8.0 10.0 0.00 0.00 0.00 37 1012.8
20260831063246 77 245 11.0 14.0 0.00 0.00 0.00 37 1012.9
20260831062745 76 190 10.0 14.0 0.00 0.00 0.00 39 1012.7
20260831062235 76 281 5.0 7.0 0.00 0.00 0.00 40 1012.7
20260831061733 76 268 4.0 6.0 0.00 0.00 0.00 40 1012.7
20260831061228 77 243 2.0 2.0 0.00 0.00 0.00 40 1012.7
20260831060725 76 267 5.0 6.0 0.00 0.00 0.00 40 1012.8
20260831060225 74 244 2.0 2.0 0.00 0.00 0.00 47 1012.9
20260831055724 73 243 2.0 2.0 0.00 0.00 0.00 47 1013.0
20260831055224 73 222 0.0 0.0 0.00 0.00 0.00 49 1013.0
20260831054719 73 210 0.0 0.0 0.00 0.00 0.00 49 1012.8
20260831054214 73 317 3.0 3.0 0.00 0.00 0.00 48 1012.9
20260831053708 74 255 0.0 0.0 0.00 0.00 0.00 47 1012.8
20260831053207 74 250 1.0 1.0 0.00 0.00 0.00 47 1012.9
20260831052706 75 263 3.0 3.0 0.00 0.00 0.00 47 1013.0
20260831052206 75 327 5.0 7.0 0.00 0.00 0.00 47 1012.9
20260831051704 75 341 6.0 7.0 0.00 0.00 0.00 48 1012.6
20260831051203 75 355 6.0 7.0 0.00 0.00 0.00 48 1013.1
20260831050703 75 322 5.0 6.0 0.00 0.00 0.00 49 1013.2
20260831050202 75 6 10.0 11.0 0.00 0.00 0.00 48 1012.6
20260831045657 75 33 3.0 3.0 0.00 0.00 0.00 49 1012.7
20260831045151 77 285 4.0 7.0 0.00 0.00 0.00 44 1012.8
20260831044646 77 245 8.0 9.0 0.00 0.00 0.00 43 1012.7
20260831044141 77 216 12.0 15.0 0.00 0.00 0.00 45 1012.5
20260831043637 77 239 16.0 18.0 0.00 0.00 0.00 46 1012.7
20260831043132 77 257 13.0 16.0 0.00 0.00 0.00 46 1012.6
20260831042631 77 243 15.0 20.0 0.00 0.00 0.00 47 1012.4
20260831042126 77 236 13.0 14.0 0.00 0.00 0.00 47 1012.2
20260831041621 77 224 12.0 15.0 0.00 0.00 0.00 49 1012.2
20260831041120 77 272 13.0 14.0 0.00 0.00 0.00 49 1012.1
20260831040616 77 255 17.0 22.0 0.00 0.00 0.00 49 1012.1
20260831040109 77 283 14.0 18.0 0.00 0.00 0.00 49 1011.8
20260831035608 78 224 16.0 22.0 0.00 0.00 0.00 49 1011.8
20260831035103 78 239 12.0 14.0 0.00 0.00 0.00 48 1011.8
20260831034602 78 268 19.0 22.0 0.00 0.00 0.00 48 1011.8
20260831034058 78 248 9.0 14.0 0.00 0.00 0.00 48 1011.8
20260831033553 78 236 10.0 11.0 0.00 0.00 0.00 48 1011.6
20260831033049 78 260 13.0 15.0 0.00 0.00 0.00 48 1011.6
20260831032548 78 248 11.0 14.0 0.00 0.00 0.00 48 1011.5
20260831032044 78 241 11.0 14.0 0.00 0.00 0.00 48 1011.4
20260831031543 79 230 11.0 13.0 0.00 0.00 0.00 48 1011.4
20260831031042 79 229 15.0 20.0 0.00 0.00 0.00 48 1011.3
20260831030541 79 246 11.0 16.0 0.00 0.00 0.00 47 1011.1
20260831030041 79 246 14.0 18.0 0.00 0.00 0.00 47 1011.2
20260831025539 80 242 10.0 15.0 0.00 0.00 0.00 46 1011.2
20260831025035 80 263 16.0 21.0 0.00 0.00 0.00 46 1011.1
20260831024530 80 261 13.0 16.0 0.00 0.00 0.00 46 1010.9
20260831024030 80 226 13.0 15.0 0.00 0.00 0.00 46 1011.2
20260831023527 81 248 15.0 18.0 0.00 0.00 0.00 46 1011.2
20260831023022 81 245 18.0 21.0 0.00 0.00 0.00 45 1011.0
20260831022521 82 242 20.0 22.0 0.00 0.00 0.00 45 1011.1
20260831022017 82 226 17.0 21.0 0.00 0.00 0.00 44 1011.2
20260831021515 82 263 15.0 17.0 0.00 0.00 0.00 43 1011.0
20260831021012 83 218 17.0 20.0 0.00 0.00 0.00 42 1010.9
20260831020507 83 246 14.0 17.0 0.00 0.00 0.00 42 1011.0
20260831020001 83 269 17.0 21.0 0.00 0.00 0.00 40 1011.0
20260831015457 84 247 19.0 24.0 0.00 0.00 0.00 39 1010.9
20260831014952 84 253 16.0 17.0 0.00 0.00 0.00 38 1010.9
20260831014447 84 242 18.0 22.0 0.00 0.00 0.00 37 1010.9
20260831013942 84 230 18.0 22.0 0.00 0.00 0.00 37 1010.7
20260831013438 84 266 17.0 24.0 0.00 0.00 0.00 37 1010.7
20260831012938 85 238 18.0 22.0 0.00 0.00 0.00 37 1010.9
20260831012433 85 247 14.0 17.0 0.00 0.00 0.00 37 1011.1
20260831011933 85 258 11.0 13.0 0.00 0.00 0.00 37 1011.0
20260831011428 85 237 16.0 17.0 0.00 0.00 0.00 36 1011.0
20260831010924 85 232 19.0 22.0 0.00 0.00 0.00 35 1011.1
20260831010424 86 239 17.0 20.0 0.00 0.00 0.00 35 1010.9
20260831005919 86 217 15.0 16.0 0.00 0.00 0.00 34 1011.2
20260831005415 86 227 17.0 23.0 0.00 0.00 0.00 34 1011.1
20260831004909 86 253 17.0 22.0 0.00 0.00 0.00 34 1011.1
20260831004406 86 242 17.0 21.0 0.00 0.00 0.00 34 1011.1
20260831003901 86 260 9.0 10.0 0.00 0.00 0.00 34 1010.7
20260831003357 86 265 12.0 14.0 0.00 0.00 0.00 33 1011.0
20260831002856 86 238 12.0 14.0 0.00 0.00 0.00 33 1011.2
20260831002356 86 256 17.0 21.0 0.00 0.00 0.00 35 1010.9
20260831001851 86 239 15.0 21.0 0.00 0.00 0.00 35 1010.9
20260831001351 86 249 17.0 20.0 0.00 0.00 0.00 34 1011.3
20260831000849 86 235 15.0 20.0 0.00 0.00 0.00 33 1010.9
20260831000344 87 244 11.0 14.0 0.00 0.00 0.00 33 1011.2
20260830235842 86 257 10.0 13.0 0.00 0.00 0.00 34 1011.3
20260830235337 86 257 9.0 10.0 0.00 0.00 0.00 34 1011.1
20260830234832 86 236 14.0 16.0 0.00 0.00 0.00 34 1011.4
20260830234328 86 251 19.0 22.0 0.00 0.00 0.00 34 1011.5
20260830233824 86 258 11.0 13.0 0.00 0.00 0.00 34 1011.4
20260830233319 86 275 11.0 13.0 0.00 0.00 0.00 34 1011.4
20260830232815 86 228 12.0 16.0 0.00 0.00 0.00 35 1011.4
20260830232311 87 273 12.0 14.0 0.00 0.00 0.00 34 1011.4
20260830231807 87 240 12.0 14.0 0.00 0.00 0.00 34 1011.3
20260830231307 87 273 10.0 17.0 0.00 0.00 0.00 34 1011.7
20260830230801 87 220 14.0 18.0 0.00 0.00 0.00 32 1011.7
20260830230257 87 251 12.0 14.0 0.00 0.00 0.00 33 1011.5
20260830225756 87 276 17.0 20.0 0.00 0.00 0.00 33 1011.7
20260830225251 87 275 13.0 15.0 0.00 0.00 0.00 31 1011.4
20260830224750 87 259 10.0 13.0 0.00 0.00 0.00 31 1011.5
20260830224245 87 255 10.0 13.0 0.00 0.00 0.00 31 1011.6
20260830223742 87 248 15.0 21.0 0.00 0.00 0.00 31 1011.5
20260830223238 87 246 12.0 15.0 0.00 0.00 0.00 31 1011.5
20260830222732 87 256 14.0 17.0 0.00 0.00 0.00 30 1011.8
20260830222227 88 254 16.0 18.0 0.00 0.00 0.00 28 1011.9
20260830221723 89 234 9.0 11.0 0.00 0.00 0.00 29 1011.9
20260830221220 89 241 22.0 25.0 0.00 0.00 0.00 29 1011.9
20260830220715 89 249 17.0 20.0 0.00 0.00 0.00 29 1011.7
20260830220214 90 269 13.0 15.0 0.00 0.00 0.00 28 1011.9
20260830215713 89 221 13.0 17.0 0.00 0.00 0.00 28 1011.8
20260830215207 89 252 19.0 23.0 0.00 0.00 0.00 29 1011.9
20260830214702 90 279 14.0 17.0 0.00 0.00 0.00 28 1011.9
20260830214156 89 270 16.0 20.0 0.00 0.00 0.00 28 1011.8
20260830213656 89 254 15.0 18.0 0.00 0.00 0.00 29 1012.1
20260830213152 89 232 13.0 15.0 0.00 0.00 0.00 28 1011.9
20260830212648 89 241 13.0 17.0 0.00 0.00 0.00 28 1012.0
20260830212142 89 238 17.0 20.0 0.00 0.00 0.00 29 1012.4
20260830211637 90 261 17.0 18.0 0.00 0.00 0.00 28 1012.4
20260830211136 89 258 19.0 22.0 0.00 0.00 0.00 28 1012.2